Simultaneous Nadir Overpasses (SNOs) Predictions

Prediction of SNOs between AQUA and NOAA-19 Satellite Orbit:

Table of predicted SNOs for the next 14.0 days since TLE Epoch: 2/22/2014
Index Date (AQUA) Time (AQUA) Lat,Lon (AQUA) SZA (AQUA ) Date (NOAA-19) Time (NOAA-19) Lat,Lon (NOAA-19) SZA (NOAA-19 ) Distance(km) Time Diff (sec)
1 02/22/2014 13:27:23 -71.82, 156.20 98.11 02/22/2014 13:28:05 -71.82, 156.18 98.11 0.78 42
2 02/24/2014 17:22:50 73.72, -86.19 83.12 02/24/2014 17:21:44 73.71, -86.13 83.12 2.33 66
3 02/24/2014 18:11:48 -72.28, 84.32 98.44 02/24/2014 18:12:16 -72.28, 84.28 98.43 1.58 28
4 02/26/2014 22:11:22 81.70, 131.62 96.77 02/26/2014 22:10:10 80.92, 132.26 96.55 87.52 72
5 02/26/2014 22:56:08 -72.51, 12.85 99.02 02/26/2014 22:56:22 -72.51, 12.84 99.02 0.09 14
6 03/01/2014 03:40:32 -72.98, -59.12 99.35 03/01/2014 03:40:33 -72.98, -59.16 99.34 1.69 1
7 03/03/2014 08:24:51 -73.22,-130.66 99.94 03/03/2014 08:24:39 -73.22,-130.68 99.93 0.97 12
8 03/03/2014 09:09:38 57.38, 53.64 64.35 03/03/2014 09:10:51 57.58, 54.76 64.68 70.33 73
9 03/05/2014 13:09:06 -73.28, 158.15 100.72 03/05/2014 13:08:41 -73.28, 158.21 100.72 2.15 25
10 03/05/2014 13:58:06 71.82, -31.46 77.73 03/05/2014 13:59:13 71.83, -31.52 77.74 2.00 67
11 03/07/2014 17:53:25 -73.59, 86.46 101.24 03/07/2014 17:52:48 -73.58, 86.51 101.25 2.07 37




NCC Satellite Simultaneous Nadir Overpasses (SNOs) Prediction Service
